Temp
-6 -7 -7 -7 -7 -7 -6 -7 -7 -7 -7 -6 -7 -7 -8 -8 -8 -8 -8 -7 -7 -7 -7 -7 -8 -8 -8 -8 -8 -9 -9 -9 -9 -9 -9 -10 -10 -10 -11 -11 -11 -11 -11 -11 -11 -11 -11 -11 -11
-6 -7 -7 -8 -7 -7 -6 -6 -6 -7 -7 -7 -7 -7 -7 -7 -8 -8 -8 -7 -7 -7 -7 -8 -8 -8 -8 -8 -8 -9 -9 -9 -9 -9 -10 -10 -10 -10 -11 -11 -11 -11 -11 -11 -11 -11 -11 -12 -11
-6 -7 -7 -7 -7 -7 -6 -7 -7 -7 -7 -7 -7 -7 -7 -8 -8 -8 -7 -7 -7 -7 -7 -8 -8 -8 -8 -8 -8 -9 -9 -9 -9 -9 -10 -10 -10 -11 -11 -11 -11 -11 -11 -11 -11 -11 -11 -11 -12
-7 -7 -7 -7 -8 -7 -7 -7 -7 -7 -7 -7 -7 -7 -7 -7 -8 -8 -8 -7 -7 -7 -7 -7 -8 -8 -8 -8 -8 -9 -9 -9 -9 -10 -10 -10 -10 -11 -11 -11 -11 -12 -12 -12 -11 -12 -12 -12 -12
-7 -7 -7 -7 -7 -8 -7 -7 -7 -7 -7 -7 -7 -7 -7 -7 -7 -8 -8 -7 -7 -7 -7 -8 -8 -8 -8 -9 -9 -9 -9 -9 -10 -10 -10 -11 -11 -11 -11 -12 -12 -12 -12 -12 -12 -12 -12 -12 -12
-7 -7 -7 -7 -7 -7 -7 -7 -7 -7 -7 -7 -7 -7 -7 -7 -7 -7 -7 -8 -8 -8 -8 -8 -8 -8 -8 -9 -9 -9 -9 -10 -10 -10 -10 -11 -11 -11 -11 -12 -12 -12 -12 -12 -12 -12 -12 -12 -12
-7 -7 -7 -7 -7 -8 -8 -8 -8 -8 -8 -7 -7 -7 -8 -7 -7 -7 -7 -7 -7 -8 -8 -8 -8 -8 -8 -9 -9 -9 -10 -10 -10 -10 -11 -11 -11 -11 -11 -12 -12 -12 -12 -13 -13 -13 -13 -13 -13
-7 -8 -7 -7 -8 -8 -8 -8 -8 -8 -8 -8 -8 -7 -7 -7 -7 -8 -8 -8 -8 -8 -8 -8 -8 -9 -9 -9 -9 -9 -10 -10 -11 -11 -11 -11 -11 -12 -12 -12 -12 -12 -12 -12 -13 -13 -13 -13 -13
-8 -8 -8 -7 -7 -8 -8 -8 -8 -8 -8 -8 -8 -8 -8 -8 -8 -8 -8 -8 -8 -8 -8 -8 -9 -9 -9 -9 -9 -10 -10 -11 -11 -11 -11 -11 -12 -12 -12 -12 -12 -12 -12 -12 -12 -13 -13 -13 -13
-8 -8 -8 -8 -8 -8 -8 -8 -8 -8 -8 -8 -8 -8 -8 -8 -8 -8 -8 -8 -9 -9 -9 -9 -9 -9 -9 -9 -9 -10 -11 -11 -11 -12 -12 -12 -12 -12 -12 -12 -12 -12 -12 -12 -12 -12 -12 -13 -13
-8 -8 -8 -8 -8 -8 -8 -8 -8 -8 -8 -8 -8 -8 -8 -8 -8 -8 -8 -8 -9 -9 -9 -9 -9 -9 -10 -10 -10 -10 -11 -12 -12 -12 -12 -12 -12 -12 -12 -13 -13 -13 -13 -12 -12 -12 -13 -13 -13
-8 -8 -8 -8 -8 -8 -8 -8 -8 -8 -8 -8 -8 -8 -8 -8 -8 -8 -8 -8 -8 -9 -9 -9 -10 -10 -10 -10 -10 -11 -12 -12 -12 -12 -12 -12 -12 -12 -13 -13 -13 -13 -13 -13 -13 -12 -12 -13 -13
-8 -9 -8 -9 -9 -9 -8 -8 -8 -8 -8 -8 -8 -8 -8 -8 -8 -8 -8 -8 -9 -9 -9 -10 -10 -10 -11 -11 -11 -11 -12 -12 -12 -13 -13 -13 -13 -13 -13 -13 -13 -13 -13 -13 -13 -13 -13 -13 -13
-9 -9 -9 -9 -9 -9 -8 -9 -8 -8 -8 -8 -8 -8 -8 -8 -9 -8 -9 -9 -9 -9 -9 -10 -10 -11 -11 -11 -11 -12 -12 -13 -14 -14 -14 -14 -14 -13 -13 -13 -13 -13 -13 -13 -13 -13 -13 -13 -13
-9 -9 -9 -9 -9 -9 -9 -8 -8 -8 -8 -8 -8 -8 -8 -9 -9 -9 -9 -10 -10 -10 -10 -11 -11 -11 -12 -12 -12 -12 -13 -14 -14 -14 -15 -14 -14 -14 -14 -14 -13 -13 -13 -13 -13 -13 -13 -13 -13
-9 -9 -9 -9 -9 -9 -9 -8 -9 -9 -8 -8 -8 -9 -8 -8 -9 -9 -10 -10 -10 -10 -10 -11 -11 -11 -12 -12 -12 -13 -13 -13 -14 -14 -15 -15 -15 -15 -14 -14 -14 -13 -13 -13 -13 -14 -14 -14 -14
-9 -9 -9 -9 -9 -9 -9 -8 -9 -9 -9 -9 -9 -9 -9 -9 -10 -10 -10 -11 -11 -12 -12 -12 -12 -12 -12 -13 -12 -13 -13 -14 -14 -15 -15 -15 -15 -15 -14 -14 -14 -14 -14 -14 -14 -14 -14 -14 -14
-9 -9 -9 -9 -9 -9 -9 -9 -9 -9 -9 -9 -9 -9 -9 -9 -10 -10 -11 -12 -12 -13 -13 -12 -13 -13 -13 -13 -13 -13 -14 -14 -15 -15 -15 -15 -15 -14 -14 -14 -14 -15 -16 -14 -14 -14 -14 -14 -14
-10 -9 -9 -9 -10 -9 -10 -9 -10 -10 -9 -9 -9 -10 -10 -10 -10 -10 -11 -11 -12 -12 -13 -12 -12 -13 -13 -12 -12 -12 -13 -13 -14 -14 -15 -15 -15 -15 -15 -16 -15 -16 -15 -15 -14 -14 -14 -14 -15
-10 -10 -10 -10 -11 -10 -10 -9 -10 -9 -9 -10 -10 -10 -10 -10 -11 -11 -11 -11 -11 -12 -12 -12 -12 -13 -12 -13 -12 -13 -13 -13 -13 -13 -14 -14 -15 -15 -16 -15 -15 -15 -15 -15 -15 -15 -15 -15 -15
-10 -10 -11 -11 -11 -11 -10 -9 -10 -10 -10 -10 -11 -11 -11 -11 -12 -12 -12 -12 -12 -12 -12 -12 -13 -13 -13 -13 -13 -13 -13 -13 -13 -13 -13 -14 -14 -15 -16 -15 -15 -15 -15 -15 -15 -15 -15 -15 -15
-11 -12 -11 -12 -11 -11 -10 -10 -10 -11 -11 -11 -11 -11 -12 -12 -12 -12 -12 -12 -12 -12 -12 -12 -12 -13 -13 -13 -13 -13 -13 -13 -13 -13 -14 -14 -14 -14 -14 -15 -15 -16 -16 -15 -15 -16 -16 -15 -15
-11 -12 -12 -12 -12 -11 -11 -11 -10 -11 -12 -12 -12 -12 -12 -13 -13 -12 -12 -12 -12 -12 -12 -12 -13 -13 -13 -13 -13 -13 -14 -14 -13 -14 -14 -14 -14 -15 -15 -15 -15 -15 -16 -17 -16 -15 -16 -15 -15
-12 -13 -13 -12 -12 -11 -11 -12 -10 -11 -11 -12 -12 -12 -13 -13 -12 -12 -13 -13 -13 -13 -12 -12 -13 -13 -14 -14 -14 -15 -14 -14 -14 -14 -15 -15 -15 -15 -15 -15 -15 -15 -15 -16 -17 -16 -16 -16 -16
-13 -13 -13 -13 -13 -12 -12 -12 -11 -11 -12 -12 -13 -13 -13 -13 -13 -13 -12 -13 -13 -13 -13 -13 -13 -14 -15 -15 -15 -15 -15 -15 -14 -15 -15 -15 -15 -16 -15 -15 -15 -16 -16 -17 -17 -17 -17 -17 -17
-14 -14 -14 -14 -13 -13 -13 -12 -12 -13 -13 -13 -13 -13 -13 -13 -14 -14 -13 -13 -13 -14 -14 -14 -14 -14 -14 -15 -15 -16 -17 -16 -16 -17 -17 -17 -17 -17 -16 -16 -16 -16 -17 -17 -18 -18 -17 -17 -17
-14 -14 -14 -14 -14 -14 -13 -13 -13 -13 -14 -13 -13 -13 -13 -14 -14 -14 -14 -14 -14 -14 -15 -14 -14 -15 -15 -15 -16 -16 -16 -16 -17 -17 -18 -18 -18 -18 -18 -18 -18 -18 -18 -18 -19 -18 -18 -18 -17
-14 -14 -15 -15 -14 -14 -14 -14 -14 -14 -14 -14 -14 -14 -14 -14 -14 -14 -15 -15 -15 -16 -16 -16 -16 -16 -16 -17 -17 -17 -17 -17 -17 -18 -18 -18 -19 -19 -19 -18 -19 -19 -19 -18 -18 -18 -18 -18 -18
-15 -15 -15 -15 -15 -15 -15 -14 -15 -15 -15 -15 -15 -15 -15 -15 -15 -15 -15 -16 -16 -16 -17 -17 -17 -17 -17 -18 -18 -19 -19 -19 -19 -18 -18 -18 -18 -18 -18 -19 -19 -19 -18 -18 -18 -18 -18 -18 -18
-16 -16 -16 -16 -15 -16 -16 -15 -16 -16 -16 -16 -16 -16 -16 -16 -17 -17 -17 -17 -17 -18 -18 -18 -18 -19 -19 -19 -20 -20 -19 -19 -18 -18 -18 -19 -19 -19 -19 -20 -20 -20 -20 -20 -19 -19 -18 -19 -19
Height
5902 5901 5900 5903 5906 5905 5906 5906 5905 5905 5905 5905 5903 5903 5902 5901 5900 5901 5899 5898 5897 5896 5895 5893 5892 5890 5888 5886 5884 5882 5880 5880 5878 5877 5876 5874 5872 5871 5869 5868 5867 5866 5864 5863 5863 5863 5862 5861 5861
5901 5901 5900 5900 5902 5903 5905 5904 5904 5905 5905 5904 5903 5903 5902 5900 5899 5899 5898 5897 5896 5895 5894 5892 5890 5889 5888 5886 5883 5881 5879 5877 5876 5875 5874 5873 5871 5870 5868 5867 5865 5863 5862 5861 5861 5861 5860 5860 5860
5900 5900 5900 5898 5899 5902 5903 5903 5903 5904 5904 5904 5903 5901 5900 5899 5897 5896 5896 5896 5895 5894 5892 5890 5889 5888 5887 5885 5882 5880 5878 5876 5874 5873 5872 5870 5869 5867 5867 5865 5863 5862 5861 5860 5860 5859 5858 5858 5857
5897 5899 5899 5896 5896 5900 5902 5902 5902 5902 5903 5902 5901 5899 5897 5895 5895 5895 5895 5894 5894 5892 5890 5889 5888 5886 5885 5883 5881 5879 5877 5874 5872 5871 5869 5868 5867 5866 5864 5864 5862 5861 5859 5858 5857 5857 5857 5855 5855
5895 5897 5897 5895 5895 5896 5899 5900 5900 5900 5900 5901 5900 5899 5898 5896 5895 5894 5892 5892 5891 5890 5889 5888 5886 5885 5882 5880 5878 5876 5874 5872 5870 5868 5867 5866 5865 5864 5863 5861 5861 5859 5858 5856 5854 5854 5854 5853 5852
5893 5894 5894 5893 5892 5894 5895 5896 5897 5897 5897 5898 5898 5897 5897 5895 5894 5893 5892 5891 5890 5888 5887 5885 5883 5881 5878 5876 5874 5873 5871 5869 5867 5866 5865 5863 5863 5862 5861 5860 5859 5857 5856 5855 5852 5850 5850 5851 5850
5890 5891 5892 5891 5890 5891 5893 5893 5893 5892 5893 5894 5894 5894 5894 5892 5891 5890 5889 5889 5887 5886 5884 5881 5880 5878 5876 5873 5871 5869 5867 5865 5864 5863 5861 5860 5860 5859 5858 5857 5856 5855 5854 5853 5851 5848 5847 5846 5847
5886 5887 5889 5888 5888 5889 5889 5890 5890 5890 5889 5889 5889 5890 5891 5889 5888 5887 5887 5886 5884 5882 5880 5877 5875 5873 5872 5870 5867 5865 5863 5861 5859 5858 5857 5856 5856 5855 5854 5853 5853 5852 5851 5850 5849 5846 5844 5843 5843
5881 5884 5885 5885 5886 5887 5888 5887 5885 5885 5886 5884 5882 5883 5885 5885 5884 5884 5882 5880 5878 5876 5875 5873 5871 5869 5867 5865 5863 5860 5858 5855 5854 5853 5852 5852 5852 5851 5850 5850 5850 5849 5847 5846 5846 5844 5842 5841 5839
5877 5879 5880 5881 5883 5884 5884 5883 5882 5881 5883 5879 5876 5878 5880 5879 5878 5878 5876 5873 5871 5869 5868 5866 5864 5862 5860 5859 5857 5855 5853 5850 5849 5848 5847 5847 5846 5846 5845 5845 5845 5844 5844 5842 5842 5841 5839 5837 5835
5872 5873 5874 5875 5876 5878 5878 5878 5877 5877 5881 5873 5874 5874 5875 5874 5872 5870 5868 5867 5864 5861 5859 5859 5857 5855 5853 5852 5850 5848 5846 5844 5843 5843 5842 5842 5841 5841 5841 5841 5840 5839 5838 5838 5837 5836 5835 5833 5830
5866 5867 5869 5870 5870 5871 5871 5872 5871 5872 5874 5870 5869 5868 5868 5867 5866 5863 5862 5860 5856 5855 5853 5850 5850 5848 5845 5844 5842 5840 5840 5838 5838 5837 5837 5836 5836 5836 5835 5835 5834 5833 5832 5831 5831 5830 5829 5827 5825
5857 5861 5862 5863 5864 5864 5863 5865 5864 5866 5863 5864 5864 5864 5861 5858 5858 5856 5854 5852 5849 5848 5845 5843 5842 5840 5838 5835 5834 5833 5833 5832 5831 5831 5831 5831 5830 5830 5829 5828 5827 5827 5826 5825 5824 5823 5823 5821 5818
5853 5854 5855 5856 5856 5856 5856 5858 5857 5856 5856 5857 5856 5855 5853 5850 5849 5846 5845 5843 5840 5839 5837 5835 5834 5831 5828 5827 5826 5825 5824 5824 5824 5824 5824 5824 5823 5823 5822 5821 5820 5820 5818 5818 5816 5816 5816 5814 5812
5845 5846 5847 5848 5847 5846 5848 5849 5849 5847 5849 5848 5847 5846 5843 5842 5839 5838 5836 5833 5831 5829 5828 5827 5825 5822 5820 5817 5815 5815 5816 5816 5816 5816 5816 5816 5815 5814 5814 5813 5812 5811 5810 5809 5809 5808 5807 5807 5807
5837 5837 5838 5838 5837 5836 5840 5841 5840 5839 5839 5839 5837 5836 5833 5831 5830 5829 5826 5823 5820 5819 5819 5817 5816 5814 5810 5807 5806 5806 5806 5806 5807 5807 5807 5806 5806 5805 5805 5804 5804 5803 5802 5802 5801 5800 5799 5799 5799
5828 5827 5826 5828 5829 5830 5829 5829 5829 5828 5829 5828 5827 5825 5823 5821 5821 5820 5818 5814 5813 5811 5811 5809 5808 5805 5801 5797 5798 5797 5797 5795 5796 5797 5797 5795 5794 5795 5795 5796 5795 5796 5796 5796 5794 5793 5792 5791 5791
5813 5816 5819 5819 5820 5818 5819 5820 5819 5818 5818 5818 5817 5818 5817 5815 5813 5811 5809 5807 5805 5804 5803 5802 5801 5799 5791 5789 5788 5785 5781 5782 5785 5787 5786 5786 5786 5787 5788 5788 5789 5789 5787 5787 5787 5786 5784 5783 5783
5804 5805 5808 5809 5807 5808 5809 5810 5810 5809 5809 5808 5809 5808 5807 5807 5804 5803 5803 5800 5799 5798 5797 5796 5794 5791 5787 5782 5779 5779 5776 5776 5776 5775 5776 5777 5777 5778 5778 5780 5780 5778 5778 5777 5777 5776 5777 5776 5776
5795 5796 5798 5799 5798 5799 5799 5801 5801 5800 5799 5799 5798 5798 5797 5796 5795 5795 5795 5794 5792 5791 5790 5788 5785 5784 5780 5779 5777 5774 5772 5771 5768 5766 5766 5766 5765 5767 5770 5770 5770 5770 5770 5770 5769 5768 5767 5767 5768
5787 5788 5788 5789 5789 5789 5791 5793 5792 5792 5792 5791 5791 5790 5790 5789 5788 5788 5787 5787 5786 5785 5783 5780 5779 5778 5775 5771 5771 5768 5766 5761 5759 5759 5759 5758 5758 5758 5760 5761 5761 5761 5760 5760 5760 5760 5759 5757 5758
5778 5779 5778 5780 5781 5783 5783 5786 5787 5785 5785 5785 5785 5785 5785 5785 5784 5784 5783 5781 5780 5779 5778 5775 5771 5769 5767 5764 5762 5760 5760 5759 5753 5751 5752 5752 5751 5749 5749 5749 5750 5749 5749 5748 5748 5748 5747 5747 5746
5770 5768 5772 5772 5773 5774 5775 5777 5781 5778 5778 5779 5779 5779 5780 5779 5780 5779 5777 5775 5773 5772 5770 5767 5765 5762 5759 5756 5754 5753 5753 5753 5752 5742 5745 5745 5744 5742 5740 5739 5740 5739 5738 5738 5738 5737 5736 5735 5735
5760 5763 5764 5764 5763 5766 5769 5769 5773 5771 5770 5770 5772 5772 5772 5772 5772 5771 5770 5769 5767 5764 5762 5759 5756 5753 5751 5749 5747 5745 5745 5743 5740 5736 5733 5734 5733 5732 5732 5730 5728 5727 5726 5725 5725 5725 5724 5723 5723
5753 5755 5755 5754 5754 5758 5760 5759 5764 5762 5763 5763 5762 5762 5761 5761 5761 5761 5760 5759 5758 5756 5753 5751 5748 5744 5741 5739 5737 5736 5734 5732 5729 5728 5724 5722 5720 5720 5719 5717 5717 5716 5713 5714 5713 5713 5712 5711 5711
5743 5745 5745 5745 5747 5749 5749 5750 5754 5755 5755 5755 5754 5753 5752 5752 5751 5751 5750 5748 5746 5745 5744 5741 5738 5734 5730 5726 5724 5723 5721 5719 5716 5713 5712 5710 5708 5707 5707 5705 5704 5701 5701 5701 5699 5700 5700 5698 5698
5733 5733 5738 5735 5736 5737 5739 5744 5744 5745 5744 5745 5746 5746 5744 5742 5741 5739 5736 5735 5733 5732 5731 5729 5727 5723 5721 5717 5713 5709 5706 5705 5702 5699 5697 5694 5693 5692 5691 5691 5690 5689 5688 5688 5687 5687 5686 5685 5684
5723 5727 5724 5723 5727 5727 5729 5731 5733 5734 5733 5734 5735 5735 5733 5731 5729 5727 5725 5723 5720 5719 5717 5716 5713 5710 5707 5703 5700 5697 5695 5693 5690 5687 5684 5683 5681 5678 5677 5675 5674 5673 5673 5672 5671 5671 5670 5669 5668
5713 5715 5716 5717 5717 5717 5718 5720 5721 5720 5720 5722 5722 5721 5720 5717 5716 5715 5713 5711 5710 5707 5704 5703 5700 5697 5694 5691 5688 5685 5683 5680 5677 5674 5670 5667 5664 5663 5660 5658 5657 5655 5654 5653 5652 5651 5651 5650 5649
5701 5704 5705 5704 5709 5708 5706 5709 5709 5707 5707 5707 5709 5708 5707 5704 5702 5700 5699 5698 5696 5694 5690 5688 5685 5682 5680 5679 5677 5674 5671 5667 5663 5659 5656 5652 5649 5646 5644 5641 5640 5637 5635 5633 5631 5631 5630 5630 5629
Wind_Speed
9 8 10 10 9 7 5 5 8 11 8 7 7 6 10 15 17 20 20 19 19 19 20 21 23 25 25 24 23 21 19 20 17 16 16 15 15 17 19 19 19 20 18 17 16 14 12 11 10
11 10 10 12 12 11 8 9 10 11 13 14 13 12 10 13 16 19 18 19 20 19 21 23 24 26 26 25 23 22 20 18 18 16 15 14 14 15 17 17 17 18 18 17 16 14 13 12 10
12 12 12 15 15 12 9 10 12 14 13 15 17 15 14 16 17 19 20 20 19 19 21 23 26 26 28 26 24 23 20 17 17 17 15 14 14 14 15 16 16 16 16 15 15 14 13 14 12
14 13 14 15 15 12 10 11 12 14 12 13 15 16 18 19 20 20 19 20 19 19 21 25 26 26 27 28 26 24 22 19 17 16 16 15 14 14 13 14 13 14 14 15 15 15 14 13 13
17 16 16 18 18 16 14 14 16 15 13 11 11 13 15 18 18 18 18 19 19 20 22 23 26 26 26 26 27 25 22 21 18 17 17 15 15 14 14 13 13 12 14 14 15 17 16 14 14
20 19 18 19 21 19 18 16 16 17 16 16 17 15 15 16 17 16 14 15 19 21 25 27 25 25 26 24 25 25 24 22 20 18 17 17 15 14 14 14 14 13 14 15 15 17 18 17 16
20 20 19 21 23 20 18 18 19 19 20 20 21 21 19 18 17 16 16 19 23 25 24 26 27 29 28 27 26 24 24 22 20 19 19 18 17 16 15 16 16 15 16 16 16 17 18 20 19
23 22 20 23 23 21 20 20 21 22 25 25 26 24 22 20 20 21 20 22 24 27 28 28 30 30 29 30 29 27 26 24 22 20 19 20 20 18 17 18 18 18 18 19 18 18 18 20 22
23 23 23 25 25 23 22 22 25 25 24 26 28 25 22 23 25 27 28 31 28 31 34 33 33 33 31 32 32 29 27 26 24 22 22 22 22 22 21 21 21 21 22 23 23 23 23 21 24
24 24 25 26 26 25 26 27 29 30 26 31 32 30 31 33 33 34 36 41 42 39 38 39 37 37 35 34 33 31 28 28 26 25 24 24 25 25 25 24 24 25 25 26 28 27 26 27 27
26 27 27 27 27 27 28 30 32 33 28 38 39 39 39 42 42 42 44 47 49 46 42 41 40 40 39 36 33 32 29 28 29 27 27 27 28 29 28 27 27 28 28 28 28 30 28 29 30
31 30 29 29 29 29 30 31 34 33 30 37 42 44 44 44 44 48 50 48 48 45 45 47 44 42 43 38 36 33 30 29 30 30 30 30 30 31 32 31 30 31 31 30 29 29 30 30 31
33 31 31 32 31 34 35 35 37 34 40 42 43 44 46 49 50 52 50 50 51 50 50 50 47 45 45 43 37 33 32 32 32 32 32 32 32 32 33 34 34 33 33 32 32 29 30 30 31
35 34 33 34 35 38 40 38 40 42 42 43 45 45 48 51 54 54 52 53 54 52 52 48 44 43 46 46 42 37 35 32 32 32 32 33 34 33 34 34 34 33 34 33 34 32 32 31 31
38 38 38 37 40 41 42 44 44 46 45 45 46 49 52 53 56 54 54 51 49 50 50 44 42 43 45 47 45 39 35 34 33 32 32 33 35 34 34 34 33 33 34 34 34 33 33 33 32
39 42 43 44 45 48 47 49 49 51 53 52 52 53 54 50 43 43 41 42 44 44 42 42 39 39 43 45 44 40 39 37 37 35 34 35 35 36 35 35 34 34 35 35 33 32 33 34 33
46 48 50 50 49 51 54 54 52 53 51 49 47 43 41 38 35 33 32 35 36 35 34 38 38 38 41 46 45 42 39 37 36 37 38 40 39 38 36 37 37 35 35 35 33 32 34 36 34
61 59 56 56 53 57 53 49 47 43 42 42 44 42 40 39 37 33 32 31 30 32 33 35 31 36 42 43 41 37 35 36 38 39 43 43 41 40 37 38 38 32 35 35 36 35 34 36 36
53 54 61 53 46 48 42 44 41 41 44 43 43 41 37 34 32 32 31 30 27 29 29 30 31 34 41 44 39 36 34 38 39 40 46 46 42 40 38 41 38 35 34 33 36 37 37 37 37
43 41 38 39 40 43 42 41 39 41 41 39 37 36 35 33 31 31 31 30 28 25 25 28 32 33 36 38 43 38 37 37 41 45 47 48 48 43 39 42 38 35 32 35 35 36 36 39 39
41 42 38 40 40 41 40 37 34 32 31 29 29 29 29 27 27 27 26 27 25 27 27 31 33 34 36 38 39 39 38 43 46 37 36 38 43 38 39 38 36 35 34 33 35 37 38 41 41
43 39 41 40 40 36 37 33 26 28 28 30 31 31 28 24 20 23 25 26 28 29 32 33 36 37 37 38 41 42 41 43 33 26 27 37 36 35 37 36 36 36 36 36 37 40 41 43 44
38 40 38 36 36 37 37 33 29 29 28 29 29 29 29 27 27 35 31 30 25 29 32 33 36 38 41 44 46 46 46 44 45 42 43 45 43 43 41 41 40 40 38 39 40 42 43 43 44
38 36 36 39 41 42 38 36 34 30 30 28 27 27 28 31 35 36 35 31 32 32 33 35 37 41 45 45 46 47 47 50 54 60 48 52 53 43 47 47 47 46 47 43 40 41 43 44 46
38 39 40 41 42 41 40 38 35 33 29 29 30 30 30 33 38 41 43 42 38 34 37 41 45 45 42 43 46 46 49 53 57 57 57 56 57 55 54 50 47 50 47 44 41 41 42 43 46
38 40 41 42 41 38 36 38 35 30 32 33 33 35 37 39 40 41 44 46 43 39 38 42 47 49 52 55 56 52 48 53 51 54 52 48 52 48 51 53 54 51 48 50 47 42 44 45 45
41 43 38 40 41 40 41 38 37 35 36 38 41 44 48 50 49 47 48 48 43 42 44 45 48 51 53 55 57 59 59 59 61 58 57 57 58 61 61 56 51 51 51 48 47 50 51 50 50
40 40 43 42 41 42 41 41 45 46 45 45 48 48 52 54 53 51 51 45 43 42 45 49 52 54 57 58 59 59 60 62 65 62 57 54 52 54 56 57 58 57 58 58 59 60 60 60 58
42 43 38 36 38 42 46 51 51 47 52 56 54 52 50 48 51 51 49 47 49 49 51 54 55 56 57 56 55 55 56 58 60 61 62 64 64 64 65 64 61 59 59 61 64 62 65 62 59
43 43 41 44 46 46 50 55 52 51 56 54 53 55 55 55 53 51 54 55 56 58 57 54 53 53 52 52 53 60 61 62 64 65 66 64 61 60 59 58 57 56 56 59 62 65 67 67 65
Wind_Direction
217 226 253 256 248 253 295 311 329 356 328 329 350 359 340 332 338 342 334 334 334 334 332 333 336 335 333 337 340 344 343 343 346 340 336 329 326 322 325 328 329 327 328 327 326 325 316 305 292
219 222 234 243 251 263 287 298 310 331 345 336 334 338 339 343 339 334 331 328 325 325 327 331 334 333 329 330 333 335 339 337 335 336 329 324 316 317 318 321 323 324 326 328 326 320 316 308 294
231 236 240 249 253 262 283 300 314 317 326 344 335 332 338 343 337 333 325 323 322 324 329 330 330 330 328 328 328 328 331 331 330 329 322 316 310 309 313 318 321 323 323 325 326 324 321 311 305
237 243 247 254 261 266 277 282 285 307 323 344 330 330 337 338 332 327 324 323 327 327 327 327 324 325 324 325 325 324 324 323 323 320 317 309 307 304 305 311 317 321 321 323 324 331 334 321 308
244 247 255 263 266 273 275 278 291 304 311 320 318 308 321 324 323 325 325 323 324 328 323 319 317 319 321 324 321 320 318 316 316 312 308 305 297 296 296 303 305 309 309 314 320 321 322 323 321
254 250 255 262 271 275 279 286 288 293 297 305 308 311 313 312 315 316 312 318 319 318 315 304 309 312 314 317 316 314 312 310 308 303 304 298 291 288 290 293 295 300 302 305 309 313 313 314 310
255 256 254 262 270 276 279 282 287 291 294 299 299 305 311 309 304 301 295 303 307 306 307 299 302 307 311 312 310 308 305 302 299 296 293 289 284 279 281 284 289 293 297 299 302 305 306 306 303
261 257 258 259 266 275 279 283 287 291 295 299 301 303 306 308 301 301 288 302 305 312 312 303 299 301 304 308 307 304 300 296 290 286 284 282 280 277 276 277 279 283 287 292 297 302 305 304 298
265 267 264 264 268 274 279 282 282 286 291 295 294 297 300 301 302 307 306 309 307 309 308 304 301 299 300 302 301 296 289 287 285 279 274 276 277 274 272 273 275 276 281 286 289 293 298 304 302
265 265 266 268 271 274 276 280 283 285 289 288 287 291 303 307 309 312 311 309 306 303 304 300 298 295 295 295 294 291 285 282 280 275 272 272 272 271 270 271 273 274 274 279 286 288 292 298 299
270 269 268 271 272 274 277 278 280 282 294 291 295 298 302 306 312 311 308 310 309 301 299 298 297 294 294 290 289 285 281 278 277 276 273 270 270 271 273 272 273 274 275 277 278 282 285 290 297
268 269 273 276 276 275 275 278 280 285 289 285 293 303 304 300 301 304 306 305 301 303 298 297 294 291 291 289 284 280 277 276 276 275 274 270 269 271 273 273 271 274 278 280 278 274 280 289 297
266 269 270 271 275 276 276 277 279 284 285 292 295 298 299 300 301 301 298 299 298 296 296 294 294 293 289 285 280 277 277 273 273 274 273 272 271 271 271 272 274 274 277 280 281 275 277 287 293
271 272 273 276 276 277 277 280 282 283 286 290 293 294 296 297 297 296 296 295 293 292 292 294 293 290 285 282 282 280 273 270 271 272 272 272 272 271 271 272 273 274 277 279 282 282 280 285 292
268 270 274 277 275 276 278 278 280 284 285 286 288 290 292 292 291 291 292 292 290 290 291 291 284 282 281 278 277 274 269 266 270 270 269 269 270 271 270 272 273 273 274 276 280 282 283 286 291
266 269 271 272 275 277 279 281 284 286 285 285 284 283 283 284 290 291 295 294 291 290 290 290 285 282 276 274 273 271 267 263 262 264 263 264 265 268 268 272 273 273 275 276 275 276 281 285 291
270 270 268 272 279 281 278 281 286 287 286 286 284 281 280 287 288 290 292 292 290 289 290 288 289 286 276 274 277 272 265 257 254 258 259 259 260 262 266 269 274 276 279 279 274 274 278 284 290
269 268 273 275 284 283 281 285 287 286 283 284 284 284 287 289 291 290 287 284 279 281 280 282 284 282 271 274 276 272 253 241 246 250 254 259 263 267 267 272 278 282 275 277 276 274 273 278 286
278 276 275 280 280 281 285 284 283 284 288 286 287 288 288 286 286 286 285 284 279 277 282 282 280 283 279 271 269 270 252 250 248 251 258 260 261 265 267 270 276 276 281 272 272 273 275 276 280
276 276 278 276 275 281 279 282 283 283 283 286 288 290 288 288 288 289 290 286 283 284 285 283 279 280 279 290 281 271 273 272 262 262 260 259 258 262 269 271 276 276 273 270 269 271 273 275 276
272 274 274 272 272 272 276 277 278 280 282 284 287 288 289 293 298 299 296 294 290 288 282 281 283 281 283 283 282 283 287 269 266 276 275 279 267 268 271 276 278 279 276 274 273 274 274 274 275
271 271 269 270 270 271 273 272 272 276 281 286 289 291 294 294 304 320 314 311 307 296 292 286 283 282 281 281 282 283 287 289 268 271 280 295 285 277 279 276 277 278 277 278 279 272 271 274 276
266 264 266 266 267 267 272 272 265 276 281 285 288 291 291 291 301 314 312 313 302 290 288 284 282 280 279 279 282 284 283 283 274 286 293 293 291 282 275 274 276 273 272 279 280 282 282 278 277
261 262 264 264 266 267 274 274 268 275 279 282 286 287 290 297 305 309 311 311 302 292 283 278 273 275 274 281 285 289 289 283 283 288 288 292 288 282 282 274 274 274 276 278 281 280 281 283 282
264 261 261 261 266 272 273 271 271 274 280 287 288 291 297 300 304 304 304 304 302 288 280 276 273 269 271 274 279 284 285 286 283 286 286 286 288 282 280 276 275 276 274 277 279 280 280 281 282
259 257 257 263 269 270 266 268 275 281 285 285 286 288 293 300 303 300 297 296 295 289 277 275 269 267 269 273 277 280 278 282 285 287 290 290 287 290 285 282 275 275 274 275 273 280 281 281 281
258 257 258 260 261 263 269 273 278 283 288 289 287 287 292 296 296 295 292 290 287 284 277 274 274 273 271 272 274 276 281 283 287 291 291 293 292 293 293 290 287 283 282 277 282 281 278 279 280
257 253 250 253 261 269 273 276 284 288 289 288 290 289 288 289 290 287 287 284 281 282 278 279 278 277 278 279 279 279 279 280 283 287 288 285 284 286 286 289 290 284 286 284 282 282 277 281 284
247 245 254 263 263 271 277 284 291 285 288 295 293 288 288 286 286 288 286 283 285 284 285 284 281 279 279 280 281 285 287 286 285 286 286 289 290 289 289 291 290 289 285 285 286 284 282 279 276
241 246 251 259 269 275 281 281 283 285 291 291 289 290 292 293 294 294 290 284 286 288 288 287 284 283 283 282 280 285 288 286 286 286 288 289 290 290 289 287 286 284 282 282 280 278 277 276 271